GSAT-7

Last updated on Thu Nov 21 2024 00:02:42 GMT+0000 (Coordinated Universal Time)

1 39234U 13044B 24324.95254819 -.00000076 00000+0 00000+0 0 9993 2 39234 0.1043 93.9046 0010047 166.1259 216.3701 1.00271696 39503
UTC large
Height (km)
Speed (km/s)
/
Latitude / Longitude
Inclination (degrees)
Orbital Period (minutes)
Azimuth
Elevation
Range (km)
Doppler Factor

Next 0 passes for location: London (51.5072 / 0.1276)

Sorry there are no passes over London.